Location: Codford Saint Peter
(51.1597°N, 2.0531°W)
Time: 19:19:17
(UTC+00:00)

Cosmos 2297 Rocket - Visible Passes

Search period start: 26 January 2021 00:00
Search period end: 05 February 2021 00:00
Orbit: 840 x 842 km, 71.0° (Epoch: 26 January)

Date Brightness Start Highest point End Pass type
(mag) Time Alt. Az. Time Alt. Az. Time Alt. Az.
26 Jan 4.7 20:34:00 10° N 20:34:34 11° N 20:34:34 11° N visible
27 Jan 4.6 20:18:53 10° N 20:19:50 12° N 20:19:50 12° N visible
28 Jan 4.5 20:03:47 10° N 20:05:07 12° N 20:05:07 12° N visible
29 Jan 4.4 19:48:39 10° N 19:50:24 13° N 19:50:24 13° N visible
29 Jan 4.9 21:31:57 10° NNW 21:32:12 11° NNW 21:32:12 11° NNW visible
30 Jan 4.5 17:48:46 10° NNW 17:49:12 10° N 17:49:36 10° N visible
30 Jan 4.3 19:33:33 10° N 19:35:41 13° NNE 19:35:41 13° NNE visible
30 Jan 4.7 21:16:49 10° NNW 21:17:30 13° NNW 21:17:30 13° NNW visible
31 Jan 4.5 17:33:20 10° NNW 17:33:58 10° N 17:34:36 10° N visible
31 Jan 4.2 19:18:26 10° N 19:20:51 13° NNE 19:21:00 13° NNE visible
31 Jan 4.5 21:01:41 10° NNW 21:02:48 15° NNW 21:02:48 15° NNW visible
01 Feb 4.2 19:03:19 10° N 19:05:38 12° NNE 19:06:19 12° NNE visible
01 Feb 4.3 20:46:33 10° NNW 20:48:08 17° N 20:48:08 17° N visible
02 Feb 4.2 18:48:12 10° N 18:50:25 12° NNE 18:51:39 11° NNE visible
02 Feb 4.1 20:31:26 10° NNW 20:33:28 20° N 20:33:28 20° N visible
03 Feb 4.2 18:33:05 10° N 18:35:12 12° NNE 18:37:01 10° NE visible
03 Feb 3.9 20:16:19 10° NNW 20:18:50 22° N 20:18:50 22° N visible
03 Feb 4.9 22:00:09 10° NW 22:00:39 13° NW 22:00:39 13° NW visible
04 Feb 4.2 18:17:58 10° N 18:19:59 12° NNE 18:22:00 10° NE visible
04 Feb 3.7 20:01:11 10° NNW 20:04:13 24° N 20:04:13 24° N visible
04 Feb 4.7 21:45:01 10° NNW 21:46:02 16° NW 21:46:02 16° NW visible
